Hourly Weather Roundup
Issued by NWS Central Illinois

Home | Current Version | Previous Version | Text Only | Print | Product List | Glossary On
Versions: 1 2 3 4 5 6 7 8 9 10 11 12 13 14 15 16 17 18 19 20 21 22 23 24 25 26 27 28 29 30 31 32 33 34 35 36 37 38 39 40 41 42 43 44 45 46 47 48 49 50
000
NZUS43 KILX 211010
HWRILX

AREA WEATHER ROUNDUP
NATIONAL WEATHER SERVICE, LINCOLN IL
400 AM CST SUN DEC 21 2014


CITY           SKY/WX    TMP DP  RH WIND       PRES   REMARKS
BLOOMINGTON    CLOUDY    32  30  92 S8        30.21F WCI  25
CHAMPAIGN      CLOUDY    32  28  85 SE8       30.23F WCI  25
DECATUR        CLOUDY    33  29  85 S10       30.22F WCI  25
FLORA          CLEAR     31  28  88 SE5       30.27F WCI  26
GALESBURG      CLOUDY    34  32  94 SE5       30.16F FOG     WCI  30
JACKSONVILLE   CLOUDY    39  34  81 S8        30.19F WCI  34
LACON          CLOUDY    33  29  85 S5        30.19F WCI  29
LAWRENCEVILLE  CLEAR     24  22  91 E3        30.29S FOG
LITCHFIELD     CLOUDY    35  30  82 SE7       30.22S WCI  29
$$


CITY           SKY/WX    TMP DP  RH WIND       PRES   REMARKS
LINCOLN        CLOUDY    35  32  87 S8        30.22S WCI  29
MACOMB         CLOUDY    36  34  95 S6        30.20S FOG     WCI  31
MATTOON        CLOUDY    31  26  82 S9        30.23F WCI  23
MT CARMEL AP   CLEAR     28  25  86 CALM      30.28S FOG
OLNEY-NOBLE AP CLOUDY    30  27  86 CALM      30.27F
PARIS          MOCLDY    28  27  94 SE3       30.26F FOG
PEORIA         CLOUDY    36  29  75 S5        30.20F WCI  32
PONTIAC        CLOUDY    33  31  91 S8        30.22F WCI  26
RANTOUL        CLOUDY    32  30  91 SE6       30.23F FOG     WCI  27
ROBINSON       CLEAR     20  20  98 CALM      30.29F FOG
SPRINGFIELD    CLOUDY    37  31  78 S9        30.21F WCI  30
TAYLORVILLE    CLOUDY    34  32  93 S8        30.22F WCI  27
$$

...REGIONAL REPORTS...


CITY           SKY/WX    TMP DP  RH WIND       PRES   REMARKS
CHICAGO O`HARE CLOUDY    32  27  81 S7        30.21F WCI  26
KANKAKEE       CLOUDY    32  28  84 SE7       30.24F WCI  25
MOLINE         CLOUDY    35  32  88 S3        30.15F
MOUNT VERNON   MOCLDY    30  23  74 CALM      30.26F
PITTSFIELD     CLOUDY    38  35  88 SE5       30.19S WCI  35
QUINCY         CLOUDY    38  34  85 S7        30.16F WCI  33
ROCKFORD       CLOUDY    32  29  88 SE6       30.20F WCI  26
$$


CITY           SKY/WX    TMP DP  RH WIND       PRES   REMARKS
BURLINGTON     CLOUDY    37  35  92 S7        30.15F WCI  32
CEDAR RAPIDS   CLOUDY    34  34 100 S10       30.08F FOG     WCI  26
DES MOINES     CLOUDY    39  35  86 S12       30.03F WCI  32
KIRKSVILLE     CLOUDY    39  35  86 S8        30.12F WCI  33
OTTUMWA        CLOUDY    37  34  89 S13       30.08F WCI  29
ST LOUIS       CLOUDY    42  33  70 SE6       30.20F
$$


CITY           SKY/WX    TMP DP  RH WIND       PRES   REMARKS
TERRE HAUTE    PTCLDY    22  19  89 E3        30.28F
EVANSVILLE     CLEAR     28  24  85 NE5       30.28F FOG     WCI  23
INDIANAPOLIS   CLEAR     23  21  92 CALM      30.27F FOG
LAFAYETTE      CLOUDY    28  24  85 SE6       30.27F WCI  22
MADISON        CLOUDY    31  28  89 SE8       30.14F FOG     WCI  23
MILWAUKEE      CLOUDY    32  26  78 S6        30.20F WCI  26
$$




USA.gov is the U.S. government's official web portal to all federal, state and local government web resources and services.